This is the latest recevied weather packets stored in our database for station/object KI4BIY. If no packets are shown the sender has not sent any weather packets the latest 1 day(s).
| Time | Temp. | Humidity | Pressure | Rain* | Wind** | Luminosity | Snow |
|---|---|---|---|---|---|---|---|
| 1777997121 | 15.56° C | 99% | 1009 hPa | 1.27 mm | 0.45 m/s, 265° | 22 W/m² | - |
| 1777996818 | 15.56° C | 99% | 1009.2 hPa | 3.05 mm | 1.34 m/s, 199° | 37 W/m² | - |
| 1777996513 | 15.56° C | 99% | 1008.8 hPa | 4.83 mm | 0.45 m/s, 215° | 62 W/m² | - |
| 1777996210 | 15° C | 99% | 1008.8 hPa | 4.32 mm | 1.34 m/s, 196° | 36 W/m² | - |
| 1777995907 | 15° C | 99% | 1009.2 hPa | 6.1 mm | 0.89 m/s, 179° | 15 W/m² | - |
| 1777995603 | 15° C | 99% | 1009.3 hPa | 9.65 mm | 0.89 m/s, 229° | 17 W/m² | - |
| 1777995301 | 15° C | 99% | 1009.3 hPa | 9.65 mm | 1.34 m/s, 216° | 15 W/m² | - |
| 1777994997 | 15° C | 99% | 1009.4 hPa | 6.1 mm | 0.45 m/s, 204° | 10 W/m² | - |
| 1777994694 | 15° C | 99% | 1009.6 hPa | 4.32 mm | 0.45 m/s, 239° | 11 W/m² | - |
| 1777994389 | 15° C | 99% | 1009.5 hPa | 3.05 mm | 0.45 m/s, 220° | 9 W/m² | - |
| 1777994085 | 15° C | 99% | 1009.3 hPa | 3.05 mm | 0.45 m/s, 253° | 12 W/m² | - |
| 1777993783 | 15° C | 99% | 1009.3 hPa | 3.05 mm | 0 m/s | 12 W/m² | - |
| 1777993479 | 15° C | 99% | 1009.2 hPa | 3.05 mm | 0.45 m/s, 275° | 22 W/m² | - |
| 1777993179 | 15° C | 99% | 1008.8 hPa | 1.78 mm | 0.89 m/s, 181° | 15 W/m² | - |
| 1777992877 | 15° C | 99% | 1009.2 hPa | 3.05 mm | 0 m/s | 23 W/m² | - |
| 1777992575 | 15° C | 99% | 1009.4 hPa | 4.83 mm | 0.45 m/s, 250° | 30 W/m² | - |
| 1777992273 | 15° C | 99% | 1008.9 hPa | 3.05 mm | 0.89 m/s, 183° | 28 W/m² | - |
| 1777991970 | 15° C | 99% | 1008.3 hPa | 3.05 mm | 0.45 m/s, 72° | 29 W/m² | - |
| 1777991667 | 15° C | 99% | 1008.9 hPa | 4.32 mm | 0.45 m/s, 210° | 35 W/m² | - |
| 1777991364 | 15° C | 99% | 1009.4 hPa | 3.05 mm | 1.34 m/s, 216° | 27 W/m² | - |
| 1777991062 | 15° C | 98% | 1009.4 hPa | 1.78 mm | 0.89 m/s, 210° | 24 W/m² | - |
| 1777990759 | 15° C | 98% | 1009 hPa | 1.27 mm | 0.89 m/s, 199° | 42 W/m² | - |
| 1777990456 | 15° C | 98% | 1009.4 hPa | 4.32 mm | 0.45 m/s, 211° | 39 W/m² | - |
| 1777990153 | 15° C | 98% | 1009.7 hPa | 4.83 mm | 1.34 m/s, 201° | 29 W/m² | - |
| 1777989850 | 15° C | 97% | 1009.3 hPa | 6.6 mm | 0.45 m/s, 199° | 12 W/m² | - |
* Rain latest hour (hover to see other rain measurements)
** Current wind speed in m/s (hover to see current wind gust speed)